Sauk Centre, MN

4:47 AM CST on December 16, 2019 (GMT -0600)
Sauk Centre

Weather History for KD39 - October, 2019

Change the Weather History Date:

Thursday, October 3, 2019

  Actual Average (WUND) Record (WUND)
Temperature  
Mean Temperature 42 °F -  
Max Temperature 43 °F - - (-1)
Min Temperature 40 °F - - (-1)
Degree Days  
Heating Degree Days 24    
Moisture  
Dew Point 39 °F    
Average Humidity 89    
Maximum Humidity 100    
Minimum Humidity 76    
Precipitation  
Precipitation 0.00 in - - ()
Sea Level Pressure  
Sea Level Pressure 30.22 in    
Wind  
Wind Speed 8 mph ()    
Max Wind Speed 17 mph    
Max Gust Speed 23 mph    
Visibility 8.5 miles    
Events Rain    
Averages and records for this station are not official NWS values.
T = Trace of Precipitation, MM = Missing Value Source: Averaged Metar Reports

Daily Weather History Graph

Daily Weather History Graph

Search for Another Location

Airport or City:

Astronomy

Oct. 03, 2019 Rise Set
Actual Time 7:20 AM CDT 6:56 PM CDT
Civil Twilight 6:50 AM CDT 7:26 PM CDT
Nautical Twilight 6:16 AM CDT 8:00 PM CDT
Astronomical Twilight 5:41 AM CDT 8:35 PM CDT
Moon 1:08 PM CDT (10/3) 10:20 PM CDT (10/3)
Length of Visible Light 12h 35m
Length of Day
11h 36m
Waxing Crescent, 30% of the Moon is Illuminated
Oct 3
Waxing Crescent
Oct 5
First Quarter
Oct 13
Full
Oct 21
Last Quarter
Oct 27
New

Hourly Weather History & Observations

Time (CDT) Temp. Windchill Dew Point Humidity Pressure Visibility Wind Dir Wind Speed Gust Speed Precip Events Conditions
12:18 AM 43.2 °F 40.5 °F 42.8 °F 99% 30.04 in 4.0 mi North 4.6 mph - N/A   Light Drizzle
12:36 AM 42.8 °F 39.3 °F 42.4 °F 99% 30.04 in 4.0 mi North 5.8 mph - N/A   Drizzle
12:56 AM 42.8 °F 39.3 °F 42.4 °F 99% 30.03 in 4.0 mi North 5.8 mph - N/A Rain Light Rain
1:15 AM 42.8 °F 39.3 °F 42.3 °F 98% 30.03 in 5.0 mi North 5.8 mph - N/A   Light Drizzle
1:16 AM 42.8 °F 40.1 °F 42.3 °F 98% 30.03 in 5.0 mi North 4.6 mph - N/A   Light Drizzle
1:35 AM 42.8 °F 41.1 °F 42.3 °F 98% 30.04 in 7.0 mi NNW 3.5 mph - N/A   Light Drizzle
1:57 AM 42.8 °F 40.1 °F 42.3 °F 98% 30.04 in 10.0 mi NNW 4.6 mph - N/A   Light Drizzle
2:16 AM 42.8 °F 38.6 °F 42.3 °F 98% 30.05 in 5.0 mi NNW 6.9 mph - N/A   Overcast
2:35 AM 42.8 °F 38.0 °F 42.4 °F 99% 30.05 in 2.5 mi NNW 8.1 mph - N/A   Overcast
2:36 AM 42.8 °F 38.6 °F 42.4 °F 99% 30.05 in 3.0 mi NNW 6.9 mph - N/A   Overcast
2:55 AM 42.8 °F 40.1 °F 42.4 °F 99% 30.05 in 3.0 mi NW 4.6 mph - N/A   Overcast
2:56 AM 42.8 °F 40.1 °F 42.4 °F 99% 30.05 in 3.0 mi NW 4.6 mph - N/A   Overcast
3:18 AM 42.6 °F 37.8 °F 42.3 °F 99% 30.06 in 3.0 mi NW 8.1 mph - N/A   Overcast
3:37 AM 42.1 °F 37.1 °F 41.9 °F 99% 30.06 in 7.0 mi WNW 8.1 mph - N/A   Overcast
3:56 AM 41.5 °F 35.9 °F 41.2 °F 99% 30.06 in 5.0 mi NW 9.2 mph - N/A   Overcast
4:15 AM 41.4 °F 35.7 °F 41.0 °F 99% 30.06 in 7.0 mi NW 9.2 mph - N/A   Overcast
4:16 AM 41.4 °F 35.7 °F 41.0 °F 99% 30.06 in 7.0 mi NW 9.2 mph - N/A   Overcast
4:35 AM 41.0 °F 35.8 °F 41.0 °F 100% 30.07 in 5.0 mi NW 8.1 mph - N/A   Overcast
4:39 AM 41.0 °F 34.7 °F 40.8 °F 99% 30.07 in 5.0 mi WNW 10.4 mph - N/A   Overcast
4:57 AM 40.8 °F 35.0 °F 40.5 °F 99% 30.08 in 10.0 mi WNW 9.2 mph - N/A   Overcast
5:15 AM 40.5 °F 35.8 °F 40.3 °F 99% 30.08 in 10.0 mi WNW 6.9 mph - N/A   Overcast
5:35 AM 40.1 °F 34.1 °F 39.6 °F 98% 30.09 in 10.0 mi NW 9.2 mph - N/A   Overcast
5:36 AM 40.1 °F 34.7 °F 39.6 °F 98% 30.09 in 10.0 mi NW 8.1 mph - N/A   Overcast
5:55 AM 40.3 °F 34.9 °F 40.1 °F 99% 30.09 in 7.0 mi NW 8.1 mph - N/A   Overcast
5:56 AM 40.3 °F 34.9 °F 40.1 °F 99% 30.09 in 7.0 mi NW 8.1 mph - N/A   Overcast
6:18 AM 40.5 °F 35.1 °F 40.1 °F 99% 30.10 in 5.0 mi WNW 8.1 mph - N/A   Overcast
6:37 AM 41.0 °F 36.4 °F 40.3 °F 97% 30.10 in 7.0 mi WNW 6.9 mph - N/A   Overcast
6:56 AM 40.5 °F 35.8 °F 40.1 °F 99% 30.11 in 10.0 mi NW 6.9 mph - N/A   Overcast
7:15 AM 41.0 °F 38.0 °F 40.3 °F 97% 30.11 in 4.0 mi West 4.6 mph - N/A   Overcast
7:35 AM 41.2 °F 36.0 °F 40.8 °F 99% 30.12 in 2.0 mi WNW 8.1 mph - N/A Rain Light Rain
7:39 AM 41.2 °F 36.6 °F 41.0 °F 99% 30.12 in 2.5 mi WNW 6.9 mph - N/A Rain Light Rain
7:58 AM 41.2 °F 34.1 °F 40.5 °F 97% 30.13 in 10.0 mi WNW 12.7 mph 18.4 mph N/A   Overcast
8:15 AM 41.0 °F 34.3 °F 39.2 °F 93% 30.14 in 10.0 mi West 11.5 mph 17.3 mph N/A   Overcast
8:35 AM 41.0 °F 33.5 °F 38.5 °F 91% 30.15 in 4.0 mi WNW 13.8 mph - N/A   Overcast
8:36 AM 41.0 °F 33.5 °F 38.5 °F 91% 30.15 in 4.0 mi WNW 13.8 mph - N/A   Overcast
8:55 AM 41.2 °F 34.1 °F 38.5 °F 90% 30.16 in 10.0 mi WNW 12.7 mph 17.3 mph N/A   Overcast
9:18 AM 41.0 °F 32.5 °F 37.4 °F 87% 30.17 in 10.0 mi WNW 17.3 mph 23.0 mph N/A   Overcast
9:37 AM 40.3 °F 33.0 °F 36.5 °F 86% 30.18 in 10.0 mi WNW 12.7 mph 20.7 mph N/A   Overcast
9:56 AM 40.5 °F 32.8 °F 36.7 °F 86% 30.19 in 7.0 mi WNW 13.8 mph 18.4 mph N/A   Overcast
10:15 AM 40.3 °F 32.6 °F 37.2 °F 89% 30.20 in 10.0 mi WNW 13.8 mph 17.3 mph N/A   Overcast
10:16 AM 40.3 °F 33.0 °F 37.0 °F 88% 30.20 in 10.0 mi WNW 12.7 mph 17.3 mph N/A   Overcast
10:35 AM 40.8 °F 33.7 °F 36.9 °F 86% 30.21 in 10.0 mi WNW 12.7 mph - N/A   Overcast
10:39 AM 41.0 °F 33.9 °F 36.7 °F 85% 30.21 in 10.0 mi WNW 12.7 mph - N/A   Overcast
10:56 AM 41.9 °F 34.3 °F 36.1 °F 80% 30.21 in 10.0 mi WNW 15.0 mph 19.6 mph N/A   Overcast
11:16 AM 42.4 °F 36.5 °F 36.7 °F 80% 30.21 in 10.0 mi NW 10.4 mph - N/A   Overcast
11:35 AM 41.9 °F 35.4 °F 36.7 °F 82% 30.23 in 10.0 mi WNW 11.5 mph - N/A   Overcast
11:36 AM 41.9 °F 35.4 °F 36.7 °F 82% 30.23 in 10.0 mi WNW 11.5 mph - N/A   Overcast
11:55 AM 42.1 °F 34.9 °F 36.5 °F 81% 30.24 in 10.0 mi NW 13.8 mph - N/A   Overcast
12:17 PM 42.6 °F 36.3 °F 36.9 °F 80% 30.24 in 10.0 mi WNW 11.5 mph 17.3 mph N/A   Overcast
12:36 PM 42.6 °F 35.6 °F 36.9 °F 80% 30.24 in 10.0 mi NW 13.8 mph - N/A   Overcast
12:55 PM 43.2 °F 37.4 °F 36.0 °F 76% 30.25 in 10.0 mi WNW 10.4 mph - N/A   Overcast
12:56 PM 43.2 °F 36.6 °F 36.1 °F 76% 30.25 in 10.0 mi WNW 12.7 mph - N/A   Overcast
1:15 PM 43.0 °F 37.7 °F 37.0 °F 80% 30.26 in 10.0 mi WNW 9.2 mph - N/A   Overcast
1:16 PM 43.0 °F 37.2 °F 37.2 °F 80% 30.26 in 10.0 mi WNW 10.4 mph - N/A   Overcast
1:38 PM 43.3 °F 36.8 °F 37.2 °F 79% 30.26 in 10.0 mi NW 12.7 mph - N/A   Overcast
1:56 PM 43.0 °F 37.2 °F 37.6 °F 81% 30.26 in 10.0 mi WNW 10.4 mph - N/A   Overcast
2:16 PM 43.2 °F 35.6 °F 37.2 °F 80% 30.26 in 10.0 mi WNW 16.1 mph 19.6 mph N/A   Overcast
2:35 PM 43.5 °F 37.5 °F 37.6 °F 80% 30.26 in 10.0 mi West 11.5 mph - N/A   Overcast
2:36 PM 43.5 °F 37.5 °F 37.6 °F 80% 30.26 in 10.0 mi West 11.5 mph - N/A   Overcast
2:55 PM 43.7 °F 37.3 °F 37.6 °F 79% 30.26 in 10.0 mi West 12.7 mph - N/A   Overcast
3:16 PM 43.0 °F 37.7 °F 37.4 °F 81% 30.27 in 10.0 mi West 9.2 mph 18.4 mph N/A   Overcast
3:36 PM 43.0 °F 37.2 °F 37.4 °F 81% 30.28 in 10.0 mi WNW 10.4 mph - N/A   Overcast
3:55 PM 43.0 °F 37.2 °F 37.2 °F 80% 30.28 in 10.0 mi WNW 10.4 mph - N/A   Overcast
3:56 PM 43.0 °F 37.7 °F 37.0 °F 80% 30.28 in 10.0 mi WNW 9.2 mph - N/A   Overcast
4:15 PM 43.3 °F 37.2 °F 37.0 °F 78% 30.29 in 10.0 mi WNW 11.5 mph 16.1 mph N/A   Overcast
4:19 PM 43.3 °F 37.2 °F 36.7 °F 77% 30.29 in 10.0 mi WNW 11.5 mph - N/A   Overcast
4:37 PM 43.2 °F 37.9 °F 36.7 °F 78% 30.31 in 10.0 mi WNW 9.2 mph - N/A   Overcast
4:56 PM 43.2 °F 37.9 °F 36.7 °F 78% 30.31 in 10.0 mi WNW 9.2 mph - N/A   Overcast
5:15 PM 43.0 °F 37.7 °F 36.7 °F 78% 30.32 in 10.0 mi NW 9.2 mph - N/A   Overcast
5:16 PM 43.0 °F 37.7 °F 36.9 °F 79% 30.32 in 10.0 mi NW 9.2 mph - N/A   Overcast
5:35 PM 43.0 °F 37.2 °F 37.2 °F 80% 30.32 in 10.0 mi NW 10.4 mph - N/A   Overcast
5:36 PM 43.0 °F 37.2 °F 37.0 °F 80% 30.32 in 10.0 mi NW 10.4 mph - N/A   Overcast
5:58 PM 42.8 °F 37.5 °F 36.7 °F 79% 30.33 in 10.0 mi NW 9.2 mph - N/A   Overcast
6:16 PM 42.3 °F 36.8 °F 36.9 °F 81% 30.34 in 10.0 mi WNW 9.2 mph - N/A   Overcast
6:35 PM 42.3 °F 37.9 °F 37.0 °F 82% 30.34 in 10.0 mi NW 6.9 mph - N/A   Overcast
6:36 PM 42.3 °F 37.3 °F 37.0 °F 82% 30.34 in 10.0 mi NW 8.1 mph - N/A   Overcast
6:55 PM 41.9 °F 37.5 °F 37.6 °F 85% 30.34 in 10.0 mi NW 6.9 mph - N/A   Overcast
7:15 PM 41.9 °F 36.9 °F 37.8 °F 85% 30.34 in 10.0 mi NW 8.1 mph - N/A   Overcast
7:37 PM 41.9 °F 37.5 °F 38.1 °F 86% 30.35 in 10.0 mi NW 6.9 mph - N/A   Overcast
7:56 PM 42.1 °F 38.4 °F 38.3 °F 86% 30.35 in 10.0 mi WNW 5.8 mph - N/A   Overcast
8:15 PM 41.9 °F 40.0 °F 39.0 °F 90% 30.36 in 10.0 mi West 3.5 mph - N/A   Overcast
8:16 PM 41.9 °F 39.0 °F 39.0 °F 90% 30.36 in 10.0 mi West 4.6 mph - N/A   Overcast
8:35 PM 41.5 °F 38.6 °F 39.0 °F 91% 30.36 in 10.0 mi West 4.6 mph - N/A   Overcast
8:36 PM 41.5 °F 38.6 °F 39.2 °F 91% 30.36 in 10.0 mi West 4.6 mph - N/A   Overcast
8:58 PM 41.5 °F 38.6 °F 39.2 °F 91% 30.37 in 10.0 mi West 4.6 mph - N/A   Overcast
9:16 PM 41.4 °F 38.4 °F 39.2 °F 92% 30.37 in 10.0 mi West 4.6 mph - N/A   Overcast
9:35 PM 41.2 °F 39.2 °F 39.2 °F 93% 30.38 in 10.0 mi West 3.5 mph - N/A   Overcast
9:36 PM 41.2 °F 38.2 °F 39.2 °F 93% 30.38 in 10.0 mi West 4.6 mph - N/A   Overcast
9:55 PM 41.4 °F 39.4 °F 39.4 °F 93% 30.38 in 10.0 mi West 3.5 mph - N/A   Overcast
9:56 PM 41.4 °F 39.4 °F 39.6 °F 93% 30.38 in 10.0 mi West 3.5 mph - N/A   Overcast
10:15 PM 41.4 °F 38.4 °F 39.6 °F 93% 30.38 in 10.0 mi West 4.6 mph - N/A   Overcast
10:20 PM 41.4 °F 38.4 °F 39.6 °F 93% 30.38 in 10.0 mi West 4.6 mph - N/A   Overcast
10:37 PM 41.5 °F 39.6 °F 39.6 °F 93% 30.39 in 10.0 mi WNW 3.5 mph - N/A   Overcast
10:55 PM 41.5 °F 39.6 °F 39.4 °F 92% 30.39 in 10.0 mi WNW 3.5 mph - N/A   Overcast
11:15 PM 41.5 °F 39.6 °F 39.4 °F 92% 30.39 in 10.0 mi WNW 3.5 mph - N/A   Overcast
11:35 PM 41.9 °F - 39.4 °F 91% 30.39 in 10.0 mi Calm Calm - N/A   Overcast
11:36 PM 41.9 °F - 39.4 °F 91% 30.39 in 10.0 mi Calm Calm - N/A   Overcast
11:59 PM 41.9 °F - 39.6 °F 91% 30.39 in 10.0 mi Calm Calm - N/A   Overcast